Weather History for Frederick, MD

Change the Weather History Date:

Thursday, June 20, 2013

  Actual Average (KHGR) Record (KHGR)
Temperature  
Mean Temperature 68 °F -  
Max Temperature 80 °F 83 °F - (0)
Min Temperature 55 °F 63 °F - (0)
Cooling Degree Days 2    
Growing Degree Days 18 (Base 50)    
Moisture  
Dew Point 60 °F    
Average Humidity 88    
Maximum Humidity 100    
Minimum Humidity 51    
Precipitation  
Precipitation 0.00 in - - ()
Sea Level Pressure  
Sea Level Pressure 30.25 in    
Wind  
Wind Speed 1 mph (South)    
Max Wind Speed 10 mph    
Max Gust Speed 16 mph    
Visibility 6 miles    
Events Fog    
T = Trace of Precipitation, MM = Missing Value Source: NWS Daily Summary

Daily Weather History Graph

Daily Weather History Graph

Search for Another Location

Airport:

Trip Planner

Search our weather history database for the weather conditions in past years. The results will help you decide how hot, cold, wet, or windy it might be!

Date:

Astronomy

Jun. 20, 2013 Rise Set
Actual Time 5:42 AM EDT 8:39 PM EDT
Civil Twilight 5:10 AM EDT 9:12 PM EDT
Nautical Twilight 4:29 AM EDT 9:53 PM EDT
Astronomical Twilight 3:41 AM EDT 10:40 PM EDT
Moon 5:40 PM EDT (6/20) 3:06 AM EDT (6/20)
Length of Visible Light 16h 02m
Length of Day
14h 57m
Waxing Gibbous, 89% of the Moon is Illuminated
Jun 20
Waxing Gibbous
Jun 23
Full
Jun 30
Last Quarter
Jul 8
New
Jul 15
First Quarter

Hourly Weather History & Observations

Time (EDT) Temp. Heat Index Dew Point Humidity Pressure Visibility Wind Dir Wind Speed Gust Speed Precip Events Conditions
12:10 AM 60.8 °F - 60.8 °F 100% 30.19 in - Calm Calm - N/A   Unknown
12:30 AM 60.8 °F - 60.8 °F 100% 30.19 in - Calm Calm - N/A   Unknown
12:50 AM 59.0 °F - 59.0 °F 100% 30.20 in - Calm Calm - N/A   Unknown
1:10 AM 60.8 °F - 60.8 °F 100% 30.20 in 10.0 mi Calm Calm - N/A   Clear
1:30 AM 59.0 °F - 59.0 °F 100% 30.21 in 1.0 mi Calm Calm - N/A   Mist
1:50 AM 59.0 °F - 59.0 °F 100% 30.21 in 5.0 mi Calm Calm - N/A   Clear
2:10 AM 59.0 °F - 59.0 °F 100% 30.21 in 4.0 mi Calm Calm - N/A   Clear
2:30 AM 59.0 °F - 59.0 °F 100% 30.21 in 4.0 mi Calm Calm - N/A   Clear
2:50 AM 57.2 °F - 57.2 °F 100% 30.21 in 3.0 mi Calm Calm - N/A   Clear
3:10 AM 59.0 °F - 59.0 °F 100% 30.21 in 2.5 mi Calm Calm - N/A   Clear
3:30 AM 57.2 °F - 57.2 °F 100% 30.21 in 2.0 mi Calm Calm - N/A   Clear
3:50 AM 57.2 °F - 57.2 °F 100% 30.21 in 2.5 mi Calm Calm - N/A   Clear
4:10 AM 59.0 °F - 59.0 °F 100% 30.22 in 2.0 mi Calm Calm - N/A   Clear
4:30 AM 55.4 °F - 55.4 °F 100% 30.22 in 0.5 mi Calm Calm - N/A Fog Fog
4:50 AM 57.2 °F - 57.2 °F 100% 30.23 in 1.0 mi Calm Calm - N/A   Mostly Cloudy
5:10 AM 55.4 °F - 55.4 °F 100% 30.23 in 1.5 mi Calm Calm - N/A   Mostly Cloudy
5:30 AM 55.4 °F - 55.4 °F 100% 30.24 in 1.0 mi Calm Calm - N/A   Overcast
5:50 AM 57.2 °F - 57.2 °F 100% 30.25 in 3.0 mi Calm Calm - N/A   Overcast
6:10 AM 59.0 °F - 59.0 °F 100% 30.25 in 5.0 mi Calm Calm - N/A   Overcast
6:30 AM 59.0 °F - 59.0 °F 100% 30.25 in 5.0 mi Calm Calm - N/A   Overcast
6:45 AM 59.0 °F - 59.0 °F 100% 30.25 in 7.0 mi Calm Calm - N/A   Overcast
6:50 AM 60.8 °F - 60.8 °F 100% 30.25 in 7.0 mi Calm Calm - N/A   Overcast
7:25 AM 60.8 °F - 60.8 °F 100% 30.26 in 1.0 mi Calm Calm - N/A   Overcast
7:45 AM 62.6 °F - 62.6 °F 100% 30.27 in 0.5 mi Calm Calm - N/A Fog Fog
8:55 AM 64.4 °F - 64.4 °F 100% 30.29 in 1.0 mi Calm Calm - N/A   Overcast
9:15 AM 66.2 °F - 66.2 °F 100% 30.29 in 3.0 mi SW 5.8 mph - N/A   Overcast
9:45 AM 69.8 °F - 66.2 °F 88% 30.29 in 5.0 mi SSE 3.5 mph - N/A   Mostly Cloudy
10:15 AM 71.6 °F - 66.2 °F 83% 30.29 in 7.0 mi WSW 3.5 mph - N/A   Mostly Cloudy
10:59 AM 75.2 °F - 66.2 °F 73% 30.29 in 10.0 mi SW 5.8 mph - N/A   Mostly Cloudy
11:45 AM 73.4 °F - 64.4 °F 73% 30.30 in 10.0 mi South 5.8 mph - N/A   Mostly Cloudy
12:50 PM 78.8 °F - 60.8 °F 54% 30.29 in 10.0 mi SSW 10.4 mph 16.1 mph N/A   Mostly Cloudy
1:50 PM 78.8 °F - 60.8 °F 54% 30.28 in 10.0 mi SSW 10.4 mph - N/A   Mostly Cloudy
2:45 PM 80.6 °F 81.5 °F 60.8 °F 51% 30.27 in 10.0 mi SSW 10.4 mph - N/A   Mostly Cloudy
3:50 PM 80.6 °F 81.5 °F 60.8 °F 51% 30.25 in 10.0 mi SSW 10.4 mph - N/A   Mostly Cloudy
4:50 PM 80.6 °F 81.5 °F 60.8 °F 51% 30.25 in 10.0 mi South 5.8 mph - N/A   Scattered Clouds
5:52 PM 78.8 °F - 62.6 °F 57% 30.25 in 10.0 mi South 6.9 mph - N/A   Scattered Clouds
6:50 PM 78.8 °F - 60.8 °F 54% 30.25 in 10.0 mi South 8.1 mph - N/A   Scattered Clouds
7:50 PM 73.4 °F - 60.8 °F 65% 30.26 in 10.0 mi South 8.1 mph - N/A   Clear
8:50 PM 69.8 °F - 59.0 °F 68% 30.25 in 10.0 mi ESE 3.5 mph - N/A   Clear
9:10 PM 68.0 °F - 60.8 °F 78% 30.26 in 7.0 mi SE 4.6 mph - N/A   Clear
9:30 PM 68.0 °F - 60.8 °F 78% 30.26 in 10.0 mi SE 3.5 mph - N/A   Clear
9:50 PM 64.4 °F - 59.0 °F 83% 30.27 in 10.0 mi Calm Calm - N/A   Clear
10:10 PM 64.4 °F - 60.8 °F 88% 30.28 in 10.0 mi SW 3.5 mph - N/A   Clear
10:30 PM 64.4 °F - 60.8 °F 88% 30.28 in 10.0 mi Calm Calm - N/A   Clear
10:50 PM 62.6 °F - 60.8 °F 94% 30.28 in 10.0 mi SSE 3.5 mph - N/A   Clear
11:10 PM 62.6 °F - 60.8 °F 94% 30.28 in 10.0 mi Calm Calm - N/A   Clear
11:30 PM 62.6 °F - 60.8 °F 94% 30.28 in 10.0 mi Calm Calm - N/A   Clear
11:50 PM 62.6 °F - 59.0 °F 88% 30.29 in 10.0 mi Calm Calm - N/A   Clear